Location: Deuil
(48.9767°N, 2.3272°E)
Time: 02:09:10
(UTC+00:00)

Cosmos 2360 Rocket - Pass Details

Date: 29 May 2022
Orbit: 832 x 846 km, 71.0° (Epoch: 03 July)

Event Time Altitude Azimuth Distance (km) Brightness Sun altitude
Rises 00:33:10 0° 263° (W) 3,387 5.2 -18.7°
Reaches altitude 10° 00:36:29 10° 283° (WNW) 2,458 4.6 -18.6°
Maximum altitude 00:40:09 17° 324° (NW) 1,992 4.6 -18.5°
Drops below altitude 10° 00:43:51 10° 5° (N) 2,472 5.9 -18.3°
Sets 00:47:12 0° 25° (NNE) 3,412 6.9 -18.2°
